Weather History for PAVD - March, 2014

Change the Weather History Date:

Sunday, March 30, 2014

  Actual Average Record
Temperature  
Mean Temperature 27 °F -  
Max Temperature 39 °F 39 °F 51 °F (1969)
Min Temperature 15 °F 26 °F 9 °F (1967)
Degree Days  
Heating Degree Days 38    
Moisture  
Dew Point 11 °F    
Average Humidity 51    
Maximum Humidity 73    
Minimum Humidity 33    
Precipitation  
Precipitation 0.00 in - - ()
Sea Level Pressure  
Sea Level Pressure 29.95 in    
Wind  
Wind Speed 3 mph (East)    
Max Wind Speed 7 mph    
Max Gust Speed -    
Visibility 10 miles    
Events      
Averages and records for this station are not official NWS values.
T = Trace of Precipitation, MM = Missing Value Source: NWS Daily Summary

Daily Weather History Graph

Daily Weather History Graph

Search for Another Location

Airport or City:

Trip Planner

Search our weather history database for the weather conditions in past years. The results will help you decide how hot, cold, wet, or windy it might be!

Date:

Astronomy

Mar. 30, 2014 Rise Set
Actual Time 7:14 AM AKDT 8:26 PM AKDT
Civil Twilight 6:29 AM AKDT 9:10 PM AKDT
Nautical Twilight 5:34 AM AKDT 10:06 PM AKDT
Astronomical Twilight 4:30 AM AKDT 11:11 PM AKDT
Moon 7:04 AM AKDT 9:00 PM AKDT
Length of Visible Light 14h 40m
Length of Day
13h 12m
New Moon, 0% of the Moon is Illuminated
Mar 30
New Moon
Apr 7
First Quarter
Apr 14
Full
Apr 21
Last Quarter
Apr 28
New

Hourly Weather History & Observations

Time (AKDT) Temp. Windchill Dew Point Humidity Pressure Visibility Wind Dir Wind Speed Gust Speed Precip Events Conditions
12:16 AM 19.4 °F 12.8 °F 10.4 °F 68% 29.86 in 10.0 mi East 4.6 mph - N/A   Clear
12:36 AM 21.2 °F - 10.4 °F 63% 29.86 in 10.0 mi Calm Calm - N/A   Clear
12:56 AM 19.4 °F - 6.8 °F 58% 29.87 in 10.0 mi Calm Calm - N/A   Clear
1:16 AM 19.4 °F 10.4 °F 8.6 °F 63% 29.88 in 10.0 mi ENE 6.9 mph - N/A   Clear
1:36 AM 21.2 °F 13.6 °F 8.6 °F 58% 29.88 in 10.0 mi North 5.8 mph - N/A   Clear
1:56 AM 24.8 °F 19.1 °F 8.6 °F 50% 29.88 in 10.0 mi East 4.6 mph - N/A   Clear
2:16 AM 21.2 °F 14.9 °F 6.8 °F 54% 29.89 in 10.0 mi NE 4.6 mph - N/A   Clear
2:36 AM 24.8 °F - 8.6 °F 50% 29.89 in 10.0 mi Calm Calm - N/A   Clear
2:56 AM 19.4 °F 12.8 °F 8.6 °F 63% 29.89 in 10.0 mi East 4.6 mph - N/A   Clear
3:16 AM 17.6 °F - 8.6 °F 68% 29.90 in 10.0 mi Calm Calm - N/A   Clear
3:36 AM 21.2 °F 16.4 °F 8.6 °F 58% 29.90 in 10.0 mi North 3.5 mph - N/A   Clear
3:56 AM 19.4 °F 14.3 °F 6.8 °F 58% 29.90 in 10.0 mi ESE 3.5 mph - N/A   Clear
4:16 AM 17.6 °F 10.7 °F 8.6 °F 68% 29.90 in 10.0 mi NE 4.6 mph - N/A   Clear
4:36 AM 17.6 °F 12.3 °F 8.6 °F 68% 29.90 in 10.0 mi ENE 3.5 mph - N/A   Clear
4:56 AM 17.6 °F - 10.4 °F 73% 29.90 in 10.0 mi Calm Calm - N/A   Clear
5:16 AM 17.6 °F - 6.8 °F 63% 29.90 in 10.0 mi Calm Calm - N/A   Clear
5:36 AM 17.6 °F 10.7 °F 8.6 °F 68% 29.91 in 10.0 mi East 4.6 mph - N/A   Clear
5:56 AM 19.4 °F - 6.8 °F 58% 29.91 in 10.0 mi Calm Calm - N/A   Clear
6:16 AM 17.6 °F 10.7 °F 6.8 °F 63% 29.91 in 10.0 mi NNE 4.6 mph - N/A   Clear
6:36 AM 15.8 °F 6.1 °F 6.8 °F 68% 29.91 in 10.0 mi ENE 6.9 mph - N/A   Clear
6:56 AM 15.8 °F 8.6 °F 8.6 °F 73% 29.91 in 10.0 mi ENE 4.6 mph - N/A   Clear
7:16 AM 15.8 °F - 6.8 °F 68% 29.91 in 10.0 mi Calm Calm - N/A   Clear
7:36 AM 15.8 °F 7.2 °F 6.8 °F 68% 29.92 in 10.0 mi ENE 5.8 mph - N/A   Clear
7:56 AM 19.4 °F 14.3 °F 6.8 °F 58% 29.92 in 10.0 mi North 3.5 mph - N/A   Clear
8:16 AM 17.6 °F 12.3 °F 6.8 °F 63% 29.93 in 10.0 mi ENE 3.5 mph - N/A   Clear
8:36 AM 17.6 °F 12.3 °F 6.8 °F 63% 29.93 in 10.0 mi East 3.5 mph - N/A   Clear
8:56 AM 19.4 °F 12.8 °F 8.6 °F 63% 29.93 in 10.0 mi ENE 4.6 mph - N/A   Clear
9:16 AM 21.2 °F - 12.2 °F 68% 29.93 in 10.0 mi Calm Calm - N/A   Clear
9:36 AM 24.8 °F 19.1 °F 10.4 °F 54% 29.93 in 10.0 mi NE 4.6 mph - N/A   Clear
9:56 AM 24.8 °F - 14.0 °F 64% 29.94 in 10.0 mi Calm Calm - N/A   Clear
10:16 AM 26.6 °F - 8.6 °F 47% 29.94 in 10.0 mi Calm Calm - N/A   Clear
10:36 AM 28.4 °F - 10.4 °F 47% 29.94 in 10.0 mi Calm Calm - N/A   Clear
10:56 AM 30.2 °F - 10.4 °F 44% 29.95 in 10.0 mi Calm Calm - N/A   Clear
11:16 AM 30.2 °F - 10.4 °F 44% 29.95 in 10.0 mi Calm Calm - N/A   Clear
11:36 AM 30.2 °F - 10.4 °F 44% 29.95 in 10.0 mi Calm Calm - N/A   Clear
11:56 AM 33.8 °F - 8.6 °F 35% 29.95 in 10.0 mi Calm Calm - N/A   Clear
12:16 PM 33.8 °F - 12.2 °F 41% 29.95 in 10.0 mi Calm Calm - N/A   Clear
12:36 PM 33.8 °F - 8.6 °F 35% 29.96 in 10.0 mi Calm Calm - N/A   Clear
12:56 PM 35.6 °F - 10.4 °F 35% 29.96 in 10.0 mi Calm Calm - N/A   Clear
1:16 PM 33.8 °F - 10.4 °F 38% 29.96 in 10.0 mi Calm Calm - N/A   Clear
1:36 PM 33.8 °F - 14.0 °F 44% 29.96 in 10.0 mi Calm Calm - N/A   Clear
1:56 PM 35.6 °F - 12.2 °F 38% 29.96 in 10.0 mi Calm Calm - N/A   Clear
2:16 PM 37.4 °F - 10.4 °F 33% 29.96 in 10.0 mi Calm Calm - N/A   Clear
2:36 PM 37.4 °F - 12.2 °F 36% 29.96 in 10.0 mi Calm Calm - N/A   Clear
2:56 PM 39.2 °F 35.0 °F 12.2 °F 33% 29.96 in 10.0 mi SE 5.8 mph - N/A   Clear
3:16 PM 39.2 °F 34.2 °F 12.2 °F 33% 29.96 in 10.0 mi SE 6.9 mph - N/A   Clear
3:36 PM 39.2 °F 35.0 °F 14.0 °F 36% 29.97 in 10.0 mi SSE 5.8 mph - N/A   Clear
3:56 PM 39.2 °F 35.0 °F 14.0 °F 36% 29.97 in 10.0 mi SE 5.8 mph - N/A   Clear
4:16 PM 39.2 °F - 14.0 °F 36% 29.97 in 10.0 mi Calm Calm - N/A   Clear
4:36 PM 39.2 °F - 14.0 °F 36% 29.97 in 10.0 mi Calm Calm - N/A   Clear
4:56 PM 39.2 °F - 15.8 °F 39% 29.97 in 10.0 mi Calm Calm - N/A   Clear
5:16 PM 39.2 °F 35.9 °F 14.0 °F 36% 29.97 in 10.0 mi SE 4.6 mph - N/A   Clear
5:36 PM 39.2 °F 37.0 °F 15.8 °F 39% 29.97 in 10.0 mi SE 3.5 mph - N/A   Clear
5:56 PM 39.2 °F 35.0 °F 15.8 °F 39% 29.98 in 10.0 mi SE 5.8 mph - N/A   Partly Cloudy
6:16 PM 39.2 °F 35.9 °F 15.8 °F 39% 29.98 in 10.0 mi SE 4.6 mph - N/A   Partly Cloudy
6:36 PM 39.2 °F 35.9 °F 14.0 °F 36% 29.98 in 10.0 mi SE 4.6 mph - N/A   Partly Cloudy
6:56 PM 37.4 °F 33.8 °F 14.0 °F 38% 29.98 in 10.0 mi SE 4.6 mph - N/A   Partly Cloudy
7:16 PM 37.4 °F 32.1 °F 14.0 °F 38% 29.99 in 10.0 mi ESE 6.9 mph - N/A   Partly Cloudy
7:36 PM 37.4 °F 33.8 °F 14.0 °F 38% 29.99 in 10.0 mi East 4.6 mph - N/A   Partly Cloudy
7:56 PM 35.6 °F 31.7 °F 14.0 °F 41% 30.00 in 10.0 mi East 4.6 mph - N/A   Partly Cloudy
8:16 PM 35.6 °F 32.8 °F 12.2 °F 38% 30.00 in 10.0 mi East 3.5 mph - N/A   Partly Cloudy
8:36 PM 33.8 °F 28.6 °F 12.2 °F 41% 30.01 in 10.0 mi East 5.8 mph - N/A   Partly Cloudy
8:56 PM 33.8 °F 30.8 °F 12.2 °F 41% 30.01 in 10.0 mi East 3.5 mph - N/A   Partly Cloudy
9:16 PM 33.8 °F 28.6 °F 12.2 °F 41% 30.02 in 10.0 mi East 5.8 mph - N/A   Partly Cloudy
9:36 PM 32.0 °F - 12.2 °F 44% 30.02 in 10.0 mi Calm Calm - N/A   Partly Cloudy
9:56 PM 28.4 °F 22.2 °F 12.2 °F 51% 30.02 in 10.0 mi ENE 5.8 mph - N/A   Partly Cloudy
10:16 PM 28.4 °F - 15.8 °F 59% 30.02 in 10.0 mi Calm Calm - N/A   Clear
10:36 PM 28.4 °F 22.2 °F 17.6 °F 64% 30.03 in 10.0 mi NE 5.8 mph - N/A   Clear
10:56 PM 28.4 °F - 17.6 °F 64% 30.03 in 10.0 mi Calm Calm - N/A   Clear
11:16 PM 26.6 °F - 15.8 °F 64% 30.04 in 10.0 mi Calm Calm - N/A   Clear
11:36 PM 26.6 °F - 15.8 °F 64% 30.04 in 10.0 mi Calm Calm - N/A   Clear
11:56 PM 24.8 °F 17.9 °F 15.8 °F 69% 30.04 in 10.0 mi ENE 5.8 mph - N/A   Clear